Location: ?????
(38.3715°N, 23.0573°E)
Time: 08:57:27
(UTC+00:00)

SJ 16-02 - Pass Details

Date: 03 August 2024
Orbit: 593 x 603 km, 75.0° (Epoch: 14 September)

Event Time Altitude Azimuth Distance (km) Brightness Sun altitude
Rises 21:36:16 0° 335° (NNW) 2,864 5.9 -32.8°
Reaches altitude 10° 21:38:35 10° 329° (NNW) 1,955 4.7 -32.9°
Enters shadow 21:40:17 22° 318° (NW) 1,337 3.6 -33.0°
